Year,Month,Day,Hour,Minute,Value (Times are PST for temperature in C)
2019,05,09,00,00,13.20
2019,05,09,00,01,13.10
2019,05,09,00,02,13.10
2019,05,09,00,03,13.10
2019,05,09,00,04,13.10
2019,05,09,00,05,13.10
2019,05,09,00,06,13.10
2019,05,09,00,07,13.00
2019,05,09,00,08,13.00
2019,05,09,00,09,13.00
2019,05,09,00,10,13.00
2019,05,09,00,11,13.00
2019,05,09,00,12,12.90
2019,05,09,00,13,12.90
2019,05,09,00,14,12.90
2019,05,09,00,15,12.90
2019,05,09,00,16,12.90
2019,05,09,00,17,12.90
2019,05,09,00,18,12.90
2019,05,09,00,19,12.90
2019,05,09,00,20,12.90
2019,05,09,00,21,12.90
2019,05,09,00,22,12.90
2019,05,09,00,23,12.80
2019,05,09,00,24,12.80
2019,05,09,00,25,12.80
2019,05,09,00,26,12.80
2019,05,09,00,27,12.80
2019,05,09,00,28,12.80
2019,05,09,00,29,12.80
2019,05,09,00,30,12.80
2019,05,09,00,31,12.70
2019,05,09,00,32,12.70
2019,05,09,00,33,12.70
2019,05,09,00,34,12.70
2019,05,09,00,35,12.70
2019,05,09,00,36,12.70
2019,05,09,00,37,12.70
2019,05,09,00,38,12.70
2019,05,09,00,39,12.70
2019,05,09,00,40,12.70
2019,05,09,00,41,12.70
2019,05,09,00,42,12.70
2019,05,09,00,43,12.70
2019,05,09,00,44,12.70
2019,05,09,00,45,12.70
2019,05,09,00,46,12.70
2019,05,09,00,47,12.70
2019,05,09,00,48,12.70
2019,05,09,00,49,12.70
2019,05,09,00,50,12.80
2019,05,09,00,51,12.80
2019,05,09,00,52,12.80
2019,05,09,00,53,12.80
2019,05,09,00,54,12.80
2019,05,09,00,55,12.90
2019,05,09,00,56,12.90
2019,05,09,00,57,12.90
2019,05,09,00,58,12.90
2019,05,09,00,59,12.90
2019,05,09,01,00,13.00
2019,05,09,01,01,13.00
2019,05,09,01,02,13.00
2019,05,09,01,03,13.00
2019,05,09,01,04,13.00
2019,05,09,01,05,13.00
2019,05,09,01,06,13.00
2019,05,09,01,07,13.00
2019,05,09,01,08,13.00
2019,05,09,01,09,13.00
2019,05,09,01,10,13.00
2019,05,09,01,11,13.00
2019,05,09,01,12,12.90
2019,05,09,01,13,12.90
2019,05,09,01,14,12.90
2019,05,09,01,15,12.90
2019,05,09,01,16,12.90
2019,05,09,01,17,12.90
2019,05,09,01,18,12.90
2019,05,09,01,19,12.90
2019,05,09,01,20,12.80
2019,05,09,01,21,12.90
2019,05,09,01,22,12.90
2019,05,09,01,23,12.90
2019,05,09,01,24,13.00
2019,05,09,01,25,13.00
2019,05,09,01,26,13.00
2019,05,09,01,27,13.00
2019,05,09,01,28,13.00
2019,05,09,01,29,13.00
2019,05,09,01,30,13.00
2019,05,09,01,31,13.00
2019,05,09,01,32,12.90
2019,05,09,01,33,12.90
2019,05,09,01,34,12.90
2019,05,09,01,35,12.90
2019,05,09,01,36,12.90
2019,05,09,01,37,12.80
2019,05,09,01,38,12.80
2019,05,09,01,39,12.80
2019,05,09,01,40,12.80
2019,05,09,01,41,12.80
2019,05,09,01,42,12.80
2019,05,09,01,43,12.70
2019,05,09,01,44,12.70
2019,05,09,01,45,12.70
2019,05,09,01,46,12.70
2019,05,09,01,47,12.70
2019,05,09,01,48,12.60
2019,05,09,01,49,12.60
2019,05,09,01,50,12.60
2019,05,09,01,51,12.60
2019,05,09,01,52,12.60
2019,05,09,01,53,12.50
2019,05,09,01,54,12.50
2019,05,09,01,55,12.50
2019,05,09,01,56,12.50
2019,05,09,01,57,12.40
2019,05,09,01,58,12.40
2019,05,09,01,59,12.40
2019,05,09,02,00,12.40
2019,05,09,02,01,12.40
2019,05,09,02,02,12.40
2019,05,09,02,03,12.40
2019,05,09,02,04,12.40
2019,05,09,02,05,12.40
2019,05,09,02,06,12.40
2019,05,09,02,07,12.30
2019,05,09,02,08,12.30
2019,05,09,02,09,12.30
2019,05,09,02,10,12.30
2019,05,09,02,11,12.30
2019,05,09,02,12,12.30
2019,05,09,02,13,12.30
2019,05,09,02,14,12.20
2019,05,09,02,15,12.20
2019,05,09,02,16,12.20
2019,05,09,02,17,12.20
2019,05,09,02,18,12.20
2019,05,09,02,19,12.20
2019,05,09,02,20,12.10
2019,05,09,02,21,12.10
2019,05,09,02,22,12.10
2019,05,09,02,23,12.10
2019,05,09,02,24,12.10
2019,05,09,02,25,12.10
2019,05,09,02,26,12.10
2019,05,09,02,27,12.00
2019,05,09,02,28,12.00
2019,05,09,02,29,12.10
2019,05,09,02,30,12.10
2019,05,09,02,31,12.10
2019,05,09,02,32,12.10
2019,05,09,02,33,12.20
2019,05,09,02,34,12.20
2019,05,09,02,35,12.20
2019,05,09,02,36,12.20
2019,05,09,02,37,12.20
2019,05,09,02,38,12.30
2019,05,09,02,39,12.30
2019,05,09,02,40,12.30
2019,05,09,02,41,12.30
2019,05,09,02,42,12.30
2019,05,09,02,43,12.30
2019,05,09,02,44,12.30
2019,05,09,02,45,12.30
2019,05,09,02,46,12.30
2019,05,09,02,47,12.30
2019,05,09,02,48,12.30
2019,05,09,02,49,12.40
2019,05,09,02,50,12.40
2019,05,09,02,51,12.40
2019,05,09,02,52,12.30
2019,05,09,02,53,12.30
2019,05,09,02,54,12.30
2019,05,09,02,55,12.30
2019,05,09,02,56,12.30
2019,05,09,02,57,12.30
2019,05,09,02,58,12.30
2019,05,09,02,59,12.20
2019,05,09,03,00,12.20
2019,05,09,03,01,12.20
2019,05,09,03,02,12.20
2019,05,09,03,03,12.20
2019,05,09,03,04,12.10
2019,05,09,03,05,12.10
2019,05,09,03,06,12.10
2019,05,09,03,07,12.10
2019,05,09,03,08,12.00
2019,05,09,03,09,12.00
2019,05,09,03,10,12.00
2019,05,09,03,11,11.90
2019,05,09,03,12,11.90
2019,05,09,03,13,11.90
2019,05,09,03,14,11.90
2019,05,09,03,15,11.90
2019,05,09,03,16,11.80
2019,05,09,03,17,11.80
2019,05,09,03,18,11.80
2019,05,09,03,19,11.80
2019,05,09,03,20,11.80
2019,05,09,03,21,11.70
2019,05,09,03,22,11.70
2019,05,09,03,23,11.70
2019,05,09,03,24,11.70
2019,05,09,03,25,11.60
2019,05,09,03,26,11.60
2019,05,09,03,27,11.60
2019,05,09,03,28,11.60
2019,05,09,03,29,11.60
2019,05,09,03,30,11.60
2019,05,09,03,31,11.50
2019,05,09,03,32,11.50
2019,05,09,03,33,11.50
2019,05,09,03,34,11.40
2019,05,09,03,35,11.40
2019,05,09,03,36,11.40
2019,05,09,03,37,11.40
2019,05,09,03,38,11.40
2019,05,09,03,39,11.40
2019,05,09,03,40,11.40
2019,05,09,03,41,11.30
2019,05,09,03,42,11.30
2019,05,09,03,43,11.30
2019,05,09,03,44,11.30
2019,05,09,03,45,11.30
2019,05,09,03,46,11.30
2019,05,09,03,47,11.30
2019,05,09,03,48,11.30
2019,05,09,03,49,11.20
2019,05,09,03,50,11.20
2019,05,09,03,51,11.20
2019,05,09,03,52,11.30
2019,05,09,03,53,11.30
2019,05,09,03,54,11.30
2019,05,09,03,55,11.30
2019,05,09,03,56,11.30
2019,05,09,03,57,11.30
2019,05,09,03,58,11.20
2019,05,09,03,59,11.20
2019,05,09,04,00,11.20
2019,05,09,04,01,11.20
2019,05,09,04,02,11.20
2019,05,09,04,03,11.20
2019,05,09,04,04,11.20
2019,05,09,04,05,11.10
2019,05,09,04,06,11.10
2019,05,09,04,07,11.10
2019,05,09,04,08,11.10
2019,05,09,04,09,11.10
2019,05,09,04,10,11.10
2019,05,09,04,11,11.10
2019,05,09,04,12,11.10
2019,05,09,04,13,11.00
2019,05,09,04,14,11.00
2019,05,09,04,15,11.00
2019,05,09,04,16,10.90
2019,05,09,04,17,10.90
2019,05,09,04,18,10.90
2019,05,09,04,19,10.90
2019,05,09,04,20,10.90
2019,05,09,04,21,10.80
2019,05,09,04,22,10.80
2019,05,09,04,23,10.80
2019,05,09,04,24,10.80
2019,05,09,04,25,10.80
2019,05,09,04,26,10.80
2019,05,09,04,27,10.80
2019,05,09,04,28,10.80
2019,05,09,04,29,10.80
2019,05,09,04,30,10.70
2019,05,09,04,31,10.70
2019,05,09,04,32,10.70
2019,05,09,04,33,10.70
2019,05,09,04,34,10.70
2019,05,09,04,35,10.70
2019,05,09,04,36,10.60
2019,05,09,04,37,10.60
2019,05,09,04,38,10.60
2019,05,09,04,39,10.60
2019,05,09,04,40,10.60
2019,05,09,04,41,10.60
2019,05,09,04,42,10.60
2019,05,09,04,43,10.60
2019,05,09,04,44,10.60
2019,05,09,04,45,10.60
2019,05,09,04,46,10.60
2019,05,09,04,47,10.60
2019,05,09,04,48,10.50
2019,05,09,04,49,10.50
2019,05,09,04,50,10.50
2019,05,09,04,51,10.50
2019,05,09,04,52,10.50
2019,05,09,04,53,10.50
2019,05,09,04,54,10.40
2019,05,09,04,55,10.40
2019,05,09,04,56,10.40
2019,05,09,04,57,10.40
2019,05,09,04,58,10.40
2019,05,09,04,59,10.40
2019,05,09,05,00,10.40
2019,05,09,05,01,10.30
2019,05,09,05,02,10.30
2019,05,09,05,03,10.30
2019,05,09,05,04,10.30
2019,05,09,05,05,10.30
2019,05,09,05,06,10.30
2019,05,09,05,07,10.30
2019,05,09,05,08,10.30
2019,05,09,05,09,10.30
2019,05,09,05,10,10.20
2019,05,09,05,11,10.20
2019,05,09,05,12,10.20
2019,05,09,05,13,10.20
2019,05,09,05,14,10.20
2019,05,09,05,15,10.20
2019,05,09,05,16,10.20
2019,05,09,05,17,10.20
2019,05,09,05,18,10.20
2019,05,09,05,19,10.20
2019,05,09,05,20,10.10
2019,05,09,05,21,10.10
2019,05,09,05,22,10.10
2019,05,09,05,23,10.10
2019,05,09,05,24,10.10
2019,05,09,05,25,10.10
2019,05,09,05,26,10.10
2019,05,09,05,27,10.10
2019,05,09,05,28,10.10
2019,05,09,05,29,10.10
2019,05,09,05,30,10.20
2019,05,09,05,31,10.20
2019,05,09,05,32,10.20
2019,05,09,05,33,10.10
2019,05,09,05,34,10.10
2019,05,09,05,35,10.10
2019,05,09,05,36,10.10
2019,05,09,05,37,10.10
2019,05,09,05,38,10.10
2019,05,09,05,39,10.10
2019,05,09,05,40,10.10
2019,05,09,05,41,10.10
2019,05,09,05,42,10.10
2019,05,09,05,43,10.00
2019,05,09,05,44,10.00
2019,05,09,05,45,10.00
2019,05,09,05,46,10.00
2019,05,09,05,47,10.00
2019,05,09,05,48,10.00
2019,05,09,05,49,10.00
2019,05,09,05,50,10.00
2019,05,09,05,51,10.00
2019,05,09,05,52,10.00
2019,05,09,05,53,10.00
2019,05,09,05,54,10.00
2019,05,09,05,55,10.00
2019,05,09,05,56,10.00
2019,05,09,05,57,9.90
2019,05,09,05,58,9.90
2019,05,09,05,59,9.90
2019,05,09,06,00,9.90
2019,05,09,06,01,9.90
2019,05,09,06,02,9.90
2019,05,09,06,03,9.90
2019,05,09,06,04,9.90
2019,05,09,06,05,9.90
2019,05,09,06,06,9.90
2019,05,09,06,07,9.90
2019,05,09,06,08,10.00
2019,05,09,06,09,10.00
2019,05,09,06,10,10.00
2019,05,09,06,11,10.00
2019,05,09,06,12,10.10
2019,05,09,06,13,10.10
2019,05,09,06,14,10.10
2019,05,09,06,15,10.10
2019,05,09,06,16,10.10
2019,05,09,06,17,10.10
2019,05,09,06,18,10.10
2019,05,09,06,19,10.10
2019,05,09,06,20,10.10
2019,05,09,06,21,10.10
2019,05,09,06,22,10.10
2019,05,09,06,23,10.20
2019,05,09,06,24,10.20
2019,05,09,06,25,10.20
2019,05,09,06,26,10.20
2019,05,09,06,27,10.20
2019,05,09,06,28,10.20
2019,05,09,06,29,10.20
2019,05,09,06,30,10.20
2019,05,09,06,31,10.20
2019,05,09,06,32,10.30
2019,05,09,06,33,10.30
2019,05,09,06,34,10.30
2019,05,09,06,35,10.40
2019,05,09,06,36,10.40
2019,05,09,06,37,10.50
2019,05,09,06,38,10.60
2019,05,09,06,39,10.70
2019,05,09,06,40,10.70
2019,05,09,06,41,10.80
2019,05,09,06,42,10.90
2019,05,09,06,43,10.90
2019,05,09,06,44,11.00
2019,05,09,06,45,11.10
2019,05,09,06,46,11.20
2019,05,09,06,47,11.30
2019,05,09,06,48,11.40
2019,05,09,06,49,11.40
2019,05,09,06,50,11.50
2019,05,09,06,51,11.60
2019,05,09,06,52,11.60
2019,05,09,06,53,11.70
2019,05,09,06,54,11.80
2019,05,09,06,55,11.80
2019,05,09,06,56,11.90
2019,05,09,06,57,11.90
2019,05,09,06,58,12.00
2019,05,09,06,59,12.10
2019,05,09,07,00,12.20
2019,05,09,07,01,12.20
2019,05,09,07,02,12.30
2019,05,09,07,03,12.40
2019,05,09,07,04,12.40
2019,05,09,07,05,12.50
2019,05,09,07,06,12.60
2019,05,09,07,07,12.60
2019,05,09,07,08,12.70
2019,05,09,07,09,12.80
2019,05,09,07,10,12.90
2019,05,09,07,11,13.10
2019,05,09,07,12,13.20
2019,05,09,07,13,13.30
2019,05,09,07,14,13.40
2019,05,09,07,15,13.50
2019,05,09,07,16,13.60
2019,05,09,07,17,13.60
2019,05,09,07,18,13.70
2019,05,09,07,19,13.80
2019,05,09,07,20,13.80
2019,05,09,07,21,13.90
2019,05,09,07,22,14.00
2019,05,09,07,23,14.20
2019,05,09,07,24,14.20
2019,05,09,07,25,14.30
2019,05,09,07,26,14.40
2019,05,09,07,27,14.40
2019,05,09,07,28,14.50
2019,05,09,07,29,14.70
2019,05,09,07,30,14.80
2019,05,09,07,31,15.00
2019,05,09,07,32,15.10
2019,05,09,07,33,15.30
2019,05,09,07,34,15.50
2019,05,09,07,35,15.70
2019,05,09,07,36,15.80
2019,05,09,07,37,16.00
2019,05,09,07,38,16.20
2019,05,09,07,39,16.40
2019,05,09,07,40,16.70
2019,05,09,07,41,16.90
2019,05,09,07,42,17.10
2019,05,09,07,43,17.30
2019,05,09,07,44,17.60
2019,05,09,07,45,17.70
2019,05,09,07,46,17.90
2019,05,09,07,47,18.10
2019,05,09,07,48,18.30
2019,05,09,07,49,18.40
2019,05,09,07,50,18.60
2019,05,09,07,51,18.70
2019,05,09,07,52,18.80
2019,05,09,07,53,18.90
2019,05,09,07,54,19.00
2019,05,09,07,55,19.10
2019,05,09,07,56,19.20
2019,05,09,07,57,19.30
2019,05,09,07,58,19.30
2019,05,09,07,59,19.40
2019,05,09,08,00,19.40
2019,05,09,08,01,19.50
2019,05,09,08,02,19.50
2019,05,09,08,03,19.60
2019,05,09,08,04,19.60
2019,05,09,08,05,19.60
2019,05,09,08,06,19.70
2019,05,09,08,07,19.70
2019,05,09,08,08,19.70
2019,05,09,08,09,19.80
2019,05,09,08,10,19.80
2019,05,09,08,11,19.80
2019,05,09,08,12,19.90
2019,05,09,08,13,19.90
2019,05,09,08,14,19.90
2019,05,09,08,15,20.00
2019,05,09,08,16,20.00
2019,05,09,08,17,20.10
2019,05,09,08,18,20.10
2019,05,09,08,19,20.20
2019,05,09,08,20,20.20
2019,05,09,08,21,20.30
2019,05,09,08,22,20.40
2019,05,09,08,23,20.40
2019,05,09,08,24,20.40
2019,05,09,08,25,20.40
2019,05,09,08,26,20.40
2019,05,09,08,27,20.40
2019,05,09,08,28,20.40
2019,05,09,08,29,20.40
2019,05,09,08,30,20.40
2019,05,09,08,31,20.40
2019,05,09,08,32,20.40
2019,05,09,08,33,20.40
2019,05,09,08,34,20.40
2019,05,09,08,35,20.40
2019,05,09,08,36,20.40
2019,05,09,08,37,20.40
2019,05,09,08,38,20.50
2019,05,09,08,39,20.50
2019,05,09,08,40,20.60
2019,05,09,08,41,20.70
2019,05,09,08,42,20.70
2019,05,09,08,43,20.70
2019,05,09,08,44,20.80
2019,05,09,08,45,20.80
2019,05,09,08,46,20.80
2019,05,09,08,47,20.80
2019,05,09,08,48,20.80
2019,05,09,08,49,20.80
2019,05,09,08,50,20.80
2019,05,09,08,51,20.80
2019,05,09,08,52,20.80
2019,05,09,08,53,20.80
2019,05,09,08,54,20.80
2019,05,09,08,55,20.80
2019,05,09,08,56,20.90
2019,05,09,08,57,20.90
2019,05,09,08,58,21.00
2019,05,09,08,59,21.00
2019,05,09,09,00,21.00
2019,05,09,09,01,21.10
2019,05,09,09,02,21.10
2019,05,09,09,03,21.20
2019,05,09,09,04,21.30
2019,05,09,09,05,21.30
2019,05,09,09,06,21.30
2019,05,09,09,07,21.20
2019,05,09,09,08,21.20
2019,05,09,09,09,21.20
2019,05,09,09,10,21.20
2019,05,09,09,11,21.20
2019,05,09,09,12,21.20
2019,05,09,09,13,21.20
2019,05,09,09,14,21.20
2019,05,09,09,15,21.20
2019,05,09,09,16,21.20
2019,05,09,09,17,21.20
2019,05,09,09,18,21.30
2019,05,09,09,19,21.30
2019,05,09,09,20,21.30
2019,05,09,09,21,21.30
2019,05,09,09,22,21.40
2019,05,09,09,23,21.40
2019,05,09,09,24,21.40
2019,05,09,09,25,21.40
2019,05,09,09,26,21.40
2019,05,09,09,27,21.40
2019,05,09,09,28,21.40
2019,05,09,09,29,21.40
2019,05,09,09,30,21.40
2019,05,09,09,31,21.50
2019,05,09,09,32,21.50
2019,05,09,09,33,21.50
2019,05,09,09,34,21.40
2019,05,09,09,35,21.40
2019,05,09,09,36,21.40
2019,05,09,09,37,21.50
2019,05,09,09,38,21.60
2019,05,09,09,39,21.60
2019,05,09,09,40,21.70
2019,05,09,09,41,21.70
2019,05,09,09,42,21.70
2019,05,09,09,43,21.70
2019,05,09,09,44,21.70
2019,05,09,09,45,21.70
2019,05,09,09,46,21.60
2019,05,09,09,47,21.60
2019,05,09,09,48,21.60
2019,05,09,09,49,21.60
2019,05,09,09,50,21.60
2019,05,09,09,51,21.60
2019,05,09,09,52,21.60
2019,05,09,09,53,21.70
2019,05,09,09,54,21.70
2019,05,09,09,55,21.70
2019,05,09,09,56,21.70
2019,05,09,09,57,21.60
2019,05,09,09,58,21.60
2019,05,09,09,59,21.70
2019,05,09,10,00,21.70
2019,05,09,10,01,21.80
2019,05,09,10,02,21.70
2019,05,09,10,03,21.70
2019,05,09,10,04,21.70
2019,05,09,10,05,21.80
2019,05,09,10,06,21.80
2019,05,09,10,07,21.80
2019,05,09,10,08,21.80
2019,05,09,10,09,21.80
2019,05,09,10,10,21.80
2019,05,09,10,11,21.80
2019,05,09,10,12,21.80
2019,05,09,10,13,21.80
2019,05,09,10,14,21.80
2019,05,09,10,15,21.80
2019,05,09,10,16,21.90
2019,05,09,10,17,21.90
2019,05,09,10,18,21.90
2019,05,09,10,19,21.90
2019,05,09,10,20,21.90
2019,05,09,10,21,21.90
2019,05,09,10,22,21.90
2019,05,09,10,23,21.90
2019,05,09,10,24,22.00
2019,05,09,10,25,22.00
2019,05,09,10,26,22.00
2019,05,09,10,27,22.10
2019,05,09,10,28,22.10
2019,05,09,10,29,22.10
2019,05,09,10,30,22.10
2019,05,09,10,31,22.10
2019,05,09,10,32,22.10
2019,05,09,10,33,22.10
2019,05,09,10,34,22.20
2019,05,09,10,35,22.20
2019,05,09,10,36,22.20
2019,05,09,10,37,22.30
2019,05,09,10,38,22.30
2019,05,09,10,39,22.20
2019,05,09,10,40,22.20
2019,05,09,10,41,22.10
2019,05,09,10,42,22.10
2019,05,09,10,43,22.00
2019,05,09,10,44,22.00
2019,05,09,10,45,22.10
2019,05,09,10,46,22.20
2019,05,09,10,47,22.30
2019,05,09,10,48,22.40
2019,05,09,10,49,22.50
2019,05,09,10,50,22.50
2019,05,09,10,51,22.60
2019,05,09,10,52,22.50
2019,05,09,10,53,22.50
2019,05,09,10,54,22.40
2019,05,09,10,55,22.40
2019,05,09,10,56,22.40
2019,05,09,10,57,22.40
2019,05,09,10,58,22.40
2019,05,09,10,59,22.40
2019,05,09,11,00,22.40
2019,05,09,11,01,22.40
2019,05,09,11,02,22.40
2019,05,09,11,03,22.50
2019,05,09,11,04,22.50
2019,05,09,11,05,22.60
2019,05,09,11,06,22.60
2019,05,09,11,07,22.60
2019,05,09,11,08,22.60
2019,05,09,11,09,22.60
2019,05,09,11,10,22.70
2019,05,09,11,11,22.70
2019,05,09,11,12,22.70
2019,05,09,11,13,22.70
2019,05,09,11,14,22.80
2019,05,09,11,15,22.80
2019,05,09,11,16,22.70
2019,05,09,11,17,22.70
2019,05,09,11,18,22.70
2019,05,09,11,19,22.70
2019,05,09,11,20,22.80
2019,05,09,11,21,22.80
2019,05,09,11,22,22.80
2019,05,09,11,23,22.80
2019,05,09,11,24,22.80
2019,05,09,11,25,22.80
2019,05,09,11,26,22.70
2019,05,09,11,27,22.70
2019,05,09,11,28,22.70
2019,05,09,11,29,22.60
2019,05,09,11,30,22.70
2019,05,09,11,31,22.70
2019,05,09,11,32,22.80
2019,05,09,11,33,22.70
2019,05,09,11,34,22.70
2019,05,09,11,35,22.70
2019,05,09,11,36,22.70
2019,05,09,11,37,22.80
2019,05,09,11,38,22.80
2019,05,09,11,39,22.80
2019,05,09,11,40,22.90
2019,05,09,11,41,22.80
2019,05,09,11,42,22.80
2019,05,09,11,43,22.80
2019,05,09,11,44,22.80
2019,05,09,11,45,22.80
2019,05,09,11,46,22.60
2019,05,09,11,47,22.60
2019,05,09,11,48,22.50
2019,05,09,11,49,22.50
2019,05,09,11,50,22.50
2019,05,09,11,51,22.60
2019,05,09,11,52,22.70
2019,05,09,11,53,22.90
2019,05,09,11,54,23.00
2019,05,09,11,55,23.10
2019,05,09,11,56,23.20
2019,05,09,11,57,23.20
2019,05,09,11,58,23.20
2019,05,09,11,59,23.20
2019,05,09,12,00,23.20
2019,05,09,12,01,23.20
2019,05,09,12,02,23.20
2019,05,09,12,03,23.20
2019,05,09,12,04,23.20
2019,05,09,12,05,23.30
2019,05,09,12,06,23.30
2019,05,09,12,07,23.30
2019,05,09,12,08,23.40
2019,05,09,12,09,23.40
2019,05,09,12,10,23.40
2019,05,09,12,11,23.30
2019,05,09,12,12,23.30
2019,05,09,12,13,23.30
2019,05,09,12,14,23.20
2019,05,09,12,15,23.20
2019,05,09,12,16,23.20
2019,05,09,12,17,23.20
2019,05,09,12,18,23.20
2019,05,09,12,19,23.20
2019,05,09,12,20,23.20
2019,05,09,12,21,23.30
2019,05,09,12,22,23.40
2019,05,09,12,23,23.40
2019,05,09,12,24,23.40
2019,05,09,12,25,23.40
2019,05,09,12,26,23.40
2019,05,09,12,27,23.30
2019,05,09,12,28,23.30
2019,05,09,12,29,23.20
2019,05,09,12,30,23.20
2019,05,09,12,31,23.30
2019,05,09,12,32,23.30
2019,05,09,12,33,23.40
2019,05,09,12,34,23.50
2019,05,09,12,35,23.50
2019,05,09,12,36,23.50
2019,05,09,12,37,23.50
2019,05,09,12,38,23.60
2019,05,09,12,39,23.70
2019,05,09,12,40,23.70
2019,05,09,12,41,23.80
2019,05,09,12,42,23.80
2019,05,09,12,43,23.90
2019,05,09,12,44,23.90
2019,05,09,12,45,24.00
2019,05,09,12,46,24.00
2019,05,09,12,47,24.00
2019,05,09,12,48,23.90
2019,05,09,12,49,23.90
2019,05,09,12,50,23.90
2019,05,09,12,51,23.90
2019,05,09,12,52,23.90
2019,05,09,12,53,23.90
2019,05,09,12,54,23.90
2019,05,09,12,55,23.90
2019,05,09,12,56,23.90
2019,05,09,12,57,23.90
2019,05,09,12,58,23.90
2019,05,09,12,59,23.80
2019,05,09,13,00,23.80
2019,05,09,13,01,23.80
2019,05,09,13,02,23.80
2019,05,09,13,03,23.80
2019,05,09,13,04,23.80
2019,05,09,13,05,23.80
2019,05,09,13,06,23.80
2019,05,09,13,07,23.80
2019,05,09,13,08,23.80
2019,05,09,13,09,23.80
2019,05,09,13,10,23.80
2019,05,09,13,11,23.80
2019,05,09,13,12,23.80
2019,05,09,13,13,23.80
2019,05,09,13,14,23.90
2019,05,09,13,15,24.00
2019,05,09,13,16,24.10
2019,05,09,13,17,24.20
2019,05,09,13,18,24.30
2019,05,09,13,19,24.30
2019,05,09,13,20,24.20
2019,05,09,13,21,24.20
2019,05,09,13,22,24.20
2019,05,09,13,23,24.30
2019,05,09,13,24,24.30
2019,05,09,13,25,24.30
2019,05,09,13,26,24.30
2019,05,09,13,27,24.40
2019,05,09,13,28,24.40
2019,05,09,13,29,24.40
2019,05,09,13,30,24.50
2019,05,09,13,31,24.50
2019,05,09,13,32,24.50
2019,05,09,13,33,24.50
2019,05,09,13,34,24.50
2019,05,09,13,35,24.50
2019,05,09,13,36,24.50
2019,05,09,13,37,24.60
2019,05,09,13,38,24.70
2019,05,09,13,39,24.80
2019,05,09,13,40,24.90
2019,05,09,13,41,24.90
2019,05,09,13,42,24.80
2019,05,09,13,43,24.80
2019,05,09,13,44,24.80
2019,05,09,13,45,24.80
2019,05,09,13,46,24.80
2019,05,09,13,47,24.80
2019,05,09,13,48,24.80
2019,05,09,13,49,24.80
2019,05,09,13,50,24.80
2019,05,09,13,51,24.80
2019,05,09,13,52,24.80
2019,05,09,13,53,24.80
2019,05,09,13,54,24.80
2019,05,09,13,55,24.70
2019,05,09,13,56,24.70
2019,05,09,13,57,24.70
2019,05,09,13,58,24.70
2019,05,09,13,59,24.70
2019,05,09,14,00,24.70
2019,05,09,14,01,24.70
2019,05,09,14,02,24.70
2019,05,09,14,03,24.70
2019,05,09,14,04,24.80
2019,05,09,14,05,24.90
2019,05,09,14,06,24.90
2019,05,09,14,07,25.00
2019,05,09,14,08,25.10
2019,05,09,14,09,25.10
2019,05,09,14,10,25.20
2019,05,09,14,11,25.20
2019,05,09,14,12,25.10
2019,05,09,14,13,25.10
2019,05,09,14,14,25.10
2019,05,09,14,15,25.00
2019,05,09,14,16,25.00
2019,05,09,14,17,25.10
2019,05,09,14,18,25.10
2019,05,09,14,19,25.10
2019,05,09,14,20,25.20
2019,05,09,14,21,25.20
2019,05,09,14,22,25.20
2019,05,09,14,23,25.20
2019,05,09,14,24,25.20
2019,05,09,14,25,25.30
2019,05,09,14,26,25.30
2019,05,09,14,27,25.30
2019,05,09,14,28,25.20
2019,05,09,14,29,25.20
2019,05,09,14,30,25.20
2019,05,09,14,31,25.20
2019,05,09,14,32,25.30
2019,05,09,14,33,25.30
2019,05,09,14,34,25.20
2019,05,09,14,35,25.20
2019,05,09,14,36,25.10
2019,05,09,14,37,25.10
2019,05,09,14,38,25.10
2019,05,09,14,39,25.10
2019,05,09,14,40,25.20
2019,05,09,14,41,25.20
2019,05,09,14,42,25.10
2019,05,09,14,43,25.10
2019,05,09,14,44,25.10
2019,05,09,14,45,25.20
2019,05,09,14,46,25.20
2019,05,09,14,47,25.30
2019,05,09,14,48,25.30
2019,05,09,14,49,25.30
2019,05,09,14,50,25.40
2019,05,09,14,51,25.40
2019,05,09,14,52,25.40
2019,05,09,14,53,25.40
2019,05,09,14,54,25.50
2019,05,09,14,55,25.50
2019,05,09,14,56,25.50
2019,05,09,14,57,25.50
2019,05,09,14,58,25.60
2019,05,09,14,59,25.60
2019,05,09,15,00,25.70
2019,05,09,15,01,25.70
2019,05,09,15,02,25.70
2019,05,09,15,03,25.60
2019,05,09,15,04,25.50
2019,05,09,15,05,25.50
2019,05,09,15,06,25.50
2019,05,09,15,07,25.40
2019,05,09,15,08,25.30
2019,05,09,15,09,25.20
2019,05,09,15,10,25.20
2019,05,09,15,11,25.20
2019,05,09,15,12,25.20
2019,05,09,15,13,25.20
2019,05,09,15,14,25.30
2019,05,09,15,15,25.30
2019,05,09,15,16,25.30
2019,05,09,15,17,25.30
2019,05,09,15,18,25.40
2019,05,09,15,19,25.40
2019,05,09,15,20,25.50
2019,05,09,15,21,25.70
2019,05,09,15,22,25.80
2019,05,09,15,23,25.80
2019,05,09,15,24,25.80
2019,05,09,15,25,25.70
2019,05,09,15,26,25.60
2019,05,09,15,27,25.60
2019,05,09,15,28,25.70
2019,05,09,15,29,25.70
2019,05,09,15,30,25.70
2019,05,09,15,31,25.70
2019,05,09,15,32,25.80
2019,05,09,15,33,25.80
2019,05,09,15,34,25.90
2019,05,09,15,35,25.90
2019,05,09,15,36,25.90
2019,05,09,15,37,25.90
2019,05,09,15,38,25.90
2019,05,09,15,39,25.90
2019,05,09,15,40,25.90
2019,05,09,15,41,25.90
2019,05,09,15,42,25.90
2019,05,09,15,43,26.00
2019,05,09,15,44,26.00
2019,05,09,15,45,26.10
2019,05,09,15,46,26.10
2019,05,09,15,47,26.10
2019,05,09,15,48,26.20
2019,05,09,15,49,26.20
2019,05,09,15,50,26.20
2019,05,09,15,51,26.20
2019,05,09,15,52,26.20
2019,05,09,15,53,26.20
2019,05,09,15,54,26.00
2019,05,09,15,55,25.90
2019,05,09,15,56,25.80
2019,05,09,15,57,25.70
2019,05,09,15,58,25.70
2019,05,09,15,59,25.70
2019,05,09,16,00,25.70
2019,05,09,16,01,25.60
2019,05,09,16,02,25.60
2019,05,09,16,03,25.60
2019,05,09,16,04,25.60
2019,05,09,16,05,25.60
2019,05,09,16,06,25.70
2019,05,09,16,07,25.80
2019,05,09,16,08,25.90
2019,05,09,16,09,25.90
2019,05,09,16,10,25.90
2019,05,09,16,11,25.90
2019,05,09,16,12,25.90
2019,05,09,16,13,25.90
2019,05,09,16,14,25.80
2019,05,09,16,15,25.70
2019,05,09,16,16,25.60
2019,05,09,16,17,25.50
2019,05,09,16,18,25.40
2019,05,09,16,19,25.30
2019,05,09,16,20,25.30
2019,05,09,16,21,25.20
2019,05,09,16,22,25.20
2019,05,09,16,23,25.20
2019,05,09,16,24,25.10
2019,05,09,16,25,25.00
2019,05,09,16,26,24.90
2019,05,09,16,27,24.80
2019,05,09,16,28,24.80
2019,05,09,16,29,24.90
2019,05,09,16,30,25.00
2019,05,09,16,31,25.10
2019,05,09,16,32,25.20
2019,05,09,16,33,25.30
2019,05,09,16,34,25.40
2019,05,09,16,35,25.40
2019,05,09,16,36,25.30
2019,05,09,16,37,25.20
2019,05,09,16,38,25.10
2019,05,09,16,39,25.10
2019,05,09,16,40,25.10
2019,05,09,16,41,25.10
2019,05,09,16,42,25.20
2019,05,09,16,43,25.30
2019,05,09,16,44,25.30
2019,05,09,16,45,25.30
2019,05,09,16,46,25.40
2019,05,09,16,47,25.40
2019,05,09,16,48,25.30
2019,05,09,16,49,25.30
2019,05,09,16,50,25.20
2019,05,09,16,51,25.20
2019,05,09,16,52,25.10
2019,05,09,16,53,25.00
2019,05,09,16,54,25.00
2019,05,09,16,55,24.90
2019,05,09,16,56,24.80
2019,05,09,16,57,24.70
2019,05,09,16,58,24.70
2019,05,09,16,59,24.70
2019,05,09,17,00,24.70
2019,05,09,17,01,24.70
2019,05,09,17,02,24.80
2019,05,09,17,03,24.80
2019,05,09,17,04,24.70
2019,05,09,17,05,24.70
2019,05,09,17,06,24.70
2019,05,09,17,07,24.70
2019,05,09,17,08,24.70
2019,05,09,17,09,24.70
2019,05,09,17,10,24.70
2019,05,09,17,11,24.60
2019,05,09,17,12,24.60
2019,05,09,17,13,24.60
2019,05,09,17,14,24.50
2019,05,09,17,15,24.40
2019,05,09,17,16,24.40
2019,05,09,17,17,24.40
2019,05,09,17,18,24.30
2019,05,09,17,19,24.30